Torna al catalogo

STARLINK-33936

AttivoComunicazioniVLEO
NORAD 64005·PAYLOAD·🇺🇸 United States

Lanciato May 14, 2025 da Cape Canaveral Space Force Station

Loading…

Prossimi Passaggi (prossime 24 ore)

TLE

AggiornatoSource: CelesTrak SupGP

Epoca: Sep 14, 2026, 20:59 UTC

1 64005C 25101M   26257.87479167  .00024941  00000+0  90335-3 0  2574
2 64005  43.0037   9.4279 0001429 272.2517 317.6447 15.27566602    10

Traccia STARLINK-33936 in tempo reale con AllMySat

Download on the App Store